Content
SEND FEEDBACK

Daily
Averages
Monthly
Summary
Mexico

PUEBLA - JARDINES DE SAN MANUEL, PUEBLA


Home > North America > Mexico > Puebla
Elevation: 6962 feet     Latitude: 19 00N     Longitude: 098 11W

WEATHER
 
SELECT A DAY
Number of Records: 123,283;   Date Range: 1/1/95 - 9/29/14
 
SHARE

PRINT THIS DATA

[ ← Previous Day ]
WEATHER ALMANAC - OCTOBER 5, 2013
[ Next Day → ]
[ °C ]   °F
Weather ElementAverageHighLow
Temperature63.5 °F74 °F (3:40 pm)48.2 °F (7:40 am)
Dewpoint52 °F59 °F (6:43 pm)46.4 °F (5:59 am)
Humidity66 %94 % (1:42 pm)32 % (12:50 pm)
Barometer30.18 in30.36 in (9:43 am)29.68 in (6:40 pm)
Wind Speed5.5 mph15 mph (3:44 pm)
Weather ElementAverage
Visibility6.1 mi
Wind DirectionSSE (171.9 °)

Weather ElementTotal
Precipitation---
Heating Degree Days3.9 (Base 65)
Growing Degree Days11.1 (Base 50)
Averaged from 23 records on October 5, 2013
WEATHER CONDITIONS BREAKOUT
WIND DIRECTION BREAKOUT
WEATHER BY HOUR - OCTOBER 5, 2013
[ °C ]   °F
Local TimeTemperatureDewpointHumidityBarometerVisibilityWind DirectionWind SpeedGust SpeedPrecipitationEventsConditions
5:59 AM50.0 °F46.4 °F87 %30.31 in5.0 miNW (320°)5.8 mphScattered Clouds
6:45 AM50.0 °F46.4 °F87 %30.32 in5.0 miNW (310°)4.6 mphScattered Clouds
6:58 AM55.0 °F51.0 °F84 %29.83 in3.0 miCalmPartly Cloudy
7:40 AM48.2 °F46.4 °F93 %30.33 in5.0 miNNW (330°)3.5 mphPartly Cloudy
8:41 AM53.6 °F48.2 °F82 %30.35 in5.0 miNorth (350°)3.5 mphClear
9:43 AM59.0 °F50.0 °F72 %30.36 in6.0 miNorth (10°)3.5 mphScattered Clouds
9:50 AM64.0 °F54.0 °F60 %29.91 in3.0 miNorth2.2 mphHaze
10:45 AM66.2 °F53.6 °F64 %30.36 in5.0 miNNE (30°)4.6 mphScattered Clouds
11:46 AM69.8 °F50.0 °F49 %30.36 in7.0 miSouth (180°)2.3 mphPartly Cloudy
12:41 PM73.4 °F51.8 °F47 %30.33 in8.0 miSouth (170°)3.5 mphScattered Clouds
12:50 PM73.0 °F49.0 °F32 %29.88 in3.0 miSE (140°)2.2 mphHaze
1:42 PM55.4 °F53.6 °F94 %30.30 in8.0 miSSE (160°)13.8 mphScattered Clouds
2:46 PM73.4 °F53.6 °F50 %30.27 in8.0 miSSE (160°)8.1 mphScattered Clouds
3:40 PM74.0 °F54.0 °F40 %29.74 in6.0 miSSE (160°)4.5 mphHaze
3:44 PM73.4 °F55.4 °F53 %30.25 in8.0 miSSW (200°)15.0 mphScattered Clouds
4:45 PM68.0 °F55.4 °F64 %30.24 in9.0 miSSW (200°)13.8 mphScattered Clouds
5:43 PM66.2 °F57.2 °F73 %30.24 in9.0 miSouth (170°)8.1 mphScattered Clouds
6:40 PM72.0 °F52.0 °F38 %29.68 in6.0 miSSE (160°)2.2 mphHaze
6:43 PM66.2 °F59.0 °F78 %30.27 in8.0 miSSE (150°)3.5 mphMostly Cloudy
7:43 PM64.4 °F59.0 °F83 %30.30 in7.0 miNE (50°)3.5 mphMostly Cloudy
8:41 PM60.8 °F50.0 °F68 %30.34 in7.0 miNorth (10°)9.2 mphMostly Cloudy
9:43 PM59.0 °F51.8 °F77 %30.35 in7.0 miNorth (350°)8.1 mphMostly Cloudy
9:50 PM66.0 °F49.0 °F43 %29.72 in3.0 miCalmPartly Cloudy
Hourly data recorded from MMPB, located miles away from Puebla - Jardines de San Manuel, Puebla







STORIES FROM OUR PARTNERS